Timeline UpdatesTrip UpdatesNews PostsPvt Posts♥♥Travel TipsAdmin PostsConv PostsFollowed PostsChat RequestsBlog PostsPNR Posts

Disclaimer
Search
 
 
Wed Nov 26, 2014 08:32:03 ISTHomeTrainsΣChainsAtlasPNRForumGalleryNewsFAQTripsMembersLoginFeedback
Latest...
1. This train will be diverted from its existing route via Tundla-Agra Fort-Mathura Jn.-Palwal-New Delhi to Tundla-Chipyana Buzurg-New Delhi and will not stop at Agra Fort, Idgah Agra Jn., Agra Cantt, Raja Ki Mandi, Mathura Jn, Chata, Koshikalan, Palwal, Ballabgarh, Faridabad & Tughlakabad from 10-11-2014 to 09-12-2014 for remodelling of Agra Yard 2. Cancelled between Sriganganagar-Mughalsarai for train scheduled to depart Sriganganagar from 2/1/15-17/2/15 #1267262 3. MST holders permitted to travel in IInd class general coaches between Bhatinda-Rohtak-Delhi
Sun Nov 23, 2014 (08:03PM)
⇐ Return Journey: Train# 13007

13008/Udyan Abha Toofan Express

Nov 26 departure has been DIVERTED between NDLS/New Delhi and TDL/Tundla Junction
Time-Table HAS CHANGED.
Nov 23 (8:03PM)
Change Departure Station:
Change Arrival Station:
Post a Train Travel TipPost a Train Travel Tip **new
Post a Comment/Question/Picture/VideoPost a Comment/Question/Picture/Video
Inaugural Run
Wed Jan 01, 1930
Pantry/Catering
✕ NO Pantry Car
✕ NO Catering
Loco/Rake Reversals
AGC/Agra Cantt. (6);
RSA - Rake Sharing
Rake/Coach Composition
LOCO-HCPV-HCPV-SLR-GEN-GEN-S1-S2-S3-S4-S5-B1-GEN-GEN-SLR.;;Entry# 252065 Author: mohantoursandtravels ;;Loco Reversal at Agra Cannt(AGC)
Loco
SGNR-NDLS: TKD WDM-3A NDLS-HWH: HWH WAP-4
News    PNR    Forum    Time-Table    Availability    Fare Chart    Map    Arr/Dep History    Trips    Gallery    ΣChains    X/O    Timeline    
Travel Time: 16h 4m    44 halts    Distance: 620 km    Avg Speed: 38 km/hr
Type: Mail/Express
Zone: ER/Eastern
Departs @ 03:26
Platform# ???
SMTWTFS
Banahi/BYN 
Arrives @ 19:30
Platform# 7
SMTWTFS
Kolkata Howrah Junction/HWH 

44 halts. 153 intermediate Stations between Banahi and Kolkata Howrah Junction

Show ALL intermediate Stations  Show Old Time-Table

#TrkCodeStation NameX/OArrivesAvgDepartsAvgHaltPFDay#KmSpeedElevZoneAddress
1|--|SGNRShri Ganganagar  -21:00-31-1361.778178mNWRSri Ganganagar, Rajasthan
2|--|ABSAbohar  21:41-21:43-2m--1-1308.768186mNRAbohar, Punjab
3|--|MOTMalout (1)  22:09-22:11-2m11-1279.261194mNRMalaut, Punjab
4|--|GDBGiddarbaha  22:27-22:29-2m--1-1263.041200mNRGiddarbaha, Punjab
5|--|BTIBathinda Junction (6)  23:10-00:05-55m51-1235.279208mNRBathinda, Punjab
6!==!MAURMaur  00:32-00:34-2m--2-1199.670220mNRMaur Mandi, Punjab
7!==!MSZMansa  00:50-00:52-2m--2-1180.954222mNRMansa, Punjab
8!==!BLZBudhlada  01:10-01:12-2m--2-1164.849223mNRBudhlada, Punjab
9!==!JHLJakhal Junction  01:50 01:48-01:55 01:53-5m--2-1135.273225mNRJakhal, Haryana
10|==|TUNTohana (2)  02:06 02:03-02:08 02:05-2m--2-1123.073232mNRTohana, Haryana
11|==|NRWNarwana Junction (4)  02:28 02:26-02:30 02:28-2m--2-1097.670235mNRKKDE, Haryana
12|==|UCAUchanaX  02:43 02:41-02:45 02:43-2m--2-1082.366225mNRDistrict Jind, Haryana
13|==|JINDJind Junction (3)  03:05 03:00-03:10 03:05-5m--2-1063.773222mNRJind 126102, Haryana
14|==|JNAJulana  03:31 03:26-03:33 03:28-2m--2-1038.070226mNRJulana, Haryana
15|==|ROKRohtak Junction (3)  04:03 03:55-04:07 04:00-4 5m--2-1006.684220mNRRohtak, Haryana
16/==/SPZSampla  04:24 04:16-04:26 04:18-2m--2-984.272222mNRSampla, Haryana
17/==/BGZBahadurgarh  04:46 04:33-04:48 04:35-2m--2-966.358220mNRBahadurgarh, Haryana
18/==/NNONangloi  05:06 04:48-05:08 04:50-2m22-953.812219mNRJJ Colony No 1, Delhi NCT
19/==/SSBShakur Basti  05:38 05:28-05:40 05:30-2m--2-946.326216mNRPitampura, Delhi NCT
20/==/DKZDelhi KishanGanj (2)  05:56 05:46-05:58 05:48-2m--2-939.47220mNRSarai Rohilla, Delhi NCT
21/==/NDLSNew Delhi (16)X  06:30 06:20-07:00-30 40m52-935.527215mNRNew Delhi 110002, Delhi NCT
22/==/TKDTuglakabad (2)XO  07:45 07:38-07:47 07:40-2m12-918.429213mNRNear Tughlakabad Metro Station, Delhi NCT
23/==/FDBFaridabad (4)X  08:13 08:03-08:15 08:05-2m32-907.344206mNRold Faridabad, Haryana
24/==/BVHBallabgarh (5)  08:28 08:16-08:30 08:18-2m22-899.235203mNRFaridabad, Haryana
25/==/PWLPalwal (8)X  08:54-08:56-2m--2-878.185200mNRPalwal, Haryana
26/==/KSVKosi Kalan (3)X  09:26-09:28-2m22-835.656189mNCRKosi Kalan, Uttar Pradesh
27/==/CHJChata (4)XO  09:39-09:41-2m--2-825.329 NCRChhata, Uttar Pradesh
28/==/MTJMathura Junction (10)XO  10:45-10:50-5m12-794.153179mNCRMathura, Uttar Pradesh
29/==/RKMRaja Ki Mandi (4)  11:46-11:48-2m22-744.511170mNCRAgra, Uttar Pradesh
30/==/AGCAgra Cantt. (6)12:10-12:40 12:30-30 20m42-740.57174mNCRAgra, Uttar Pradesh
31/==/IDHIdgah Agra Junction (3)  12:48-12:50-2m--2-738.311168mNCRAgra, Uttar Pradesh
32/==/AFAgra Fort (3)X  13:02-13:07-5m12-736.126170mNCRRakabganj, Uttar Pradesh
33/==/TDLTundla Junction (5)  13:55 14:00-14:05 14:10-10m--2-713.255167mNCRDistt.Firozabad, Uttar Pradesh
34/==/FZDFirozabad (4)X  14:24 14:28-14:26 14:30-2m22-696.760164mNCRFirozabad, Uttar Pradesh
35/==/SKBShikohabad Junction (4)X  14:45 14:50-14:47 14:52-2m22-676.8150166mNCRDistrict Firozabad, Uttar Pradesh
36/==/BDNBhadan (2)X  15:00-15:02-2m--2-656.878160mNCRFirozabad, Uttar Pradesh
37/==/JGRJaswantnagar (2)X  15:17-15:19-2m--2-637.337154mNCRJaswantnagar, Uttar Pradesh
38/==/ETWEtawah (5)  15:38 15:45-15:40 15:47-2m32-621.479154mNCRDistt. Etawah, Uttar Pradesh
39/==/BNTBharthana (3)  15:54 16:02-15:56 16:04-2m--2-601.569147mNCRBharthana, Uttar Pradesh
40/==/ULDAchalda (3)X  16:13 16:21-16:15 16:23-2m--2-582.067147mNCRDist. Auraiya(05688-1072), Uttar Pradesh
41/==/PHDPhaphund (4)  16:27 16:38-16:29 16:40-2m--2-565.259146mNCRdist. Auraiya, Uttar Pradesh
42/==/JJKJhinjhak (3)  16:43 17:00-16:45 17:02-2m22-545.471140mNCRAuraiya, Uttar Pradesh
43/==/RURARura (4)XO  17:00 17:18-17:02 17:20-2m--2-526.398137mNCRJhinjhak, Uttar Pradesh
44/==/PNKPanki (3)XO  17:40-17:42-2m--2-493.542129mNCRKANPUR-208 020, Uttar Pradesh
45/==/GOYGovindpuri Junction (2)  17:53-17:55-2m22-485.96129mNCRKANPUR-208 006, Uttar Pradesh
46/==/CNBKanpur Central (10)  18:25 18:30-18:40 18:45-15m--2-482.173128mNCRKANPUR-208 001, Uttar Pradesh
47/==/BKOBindki Road  19:28 19:23-19:30 19:25-2m--2-435.867124mNCRFatehpur, Uttar Pradesh
48/==/FTPFatehpur (3)X  19:58 19:53-20:00 19:55-2m--2-404.590120mNCRFatehpur, Uttar Pradesh
49/==/KGAKhaga (3)  20:23 20:18-20:25 20:20-2m--2-369.871114mNCRFatehpur, Uttar Pradesh
50/==/SROSirathu (2)  20:44 20:41-20:46 20:43-2m12-345.067109mNCRSirathu, Uttar Pradesh
51/==/BREBharwariO  21:03 21:01-21:05 21:03-2m--2-324.936108mNCRBharwari, Uttar Pradesh
52/==/ALDAllahabad Junction (10)XO  22:05-22:15-10m62-287.890100mNCRAllahabad 211003, Uttar Pradesh
53/==/BDLVindhyachal (3)XO  23:11 23:10-23:13 23:12-2m--2-205.62788mNCRMirzapur, Uttar Pradesh
54/==/MZPMirzapur (3)  23:33 23:28-23:35 23:30-2m22-198.37888mNCRMirzapur, Uttar Pradesh
55/==/CARChunar Junction (5)  00:01 23:54-00:02 23:56-1 2m32-167.02885mNCRChunar Junction, Uttar Pradesh
56/==/MGSMughal Sarai Junction (8)X  01:05-01:20 01:15-15 10m13-135.16583mECRDistt: Chandauli Pin 232101, Uttar Pradesh
57/==/ZNAZamania (2)X  01:56-01:58-2m--3-90.86777mECRGhazipur, Uttar Pradesh
58/==/DLNDildarnagar Junction (2)  02:10-02:12-2m--3-77.48072mECRDildarnagar, Uttar Pradesh
59/==/BXRBuxar (3)X  02:39-02:44-5m--3-41.26167mECRBuxar, Bihar
60/==/DUREDumraon (3)X  03:00-03:02-2m--3-24.88070mECRDumraon, Bihar
61/==/RPRRaghunathpur (4)  03:14-03:16-2m--3-8.86669mECRRaghunathpur, Bihar
62/==/BYNBanahi (2)»  03:24-03:26-2m--30.05167mECRBanahi, Bihar
63/==/BEABihiya (3)X  03:33-03:35-2m--35.97167mECRBehea, Bihar
64/==/ARAAra Junction (3)X  03:53-03:57-4m--327.37463mECRDistt: Bhojpur Ph 06182-233411, Bihar
65/==/KUAKulharia (2)  04:05-04:07-2m--337.23161mECRChandi Sahar Rd, Bihar
66/==/KWRKoelwar (2)O  04:14-04:16-2m--340.85865mECRNational Highway 30, Bihar
67/==/BTABihta (2)  04:25-04:27-2m--349.54262mECRDistt: Patna, Bihar
68/==/SDESadisopur (2)  04:33-04:35-2m--353.86164mECRSadisopur, Bihar
69/==/NEONeora (2)XO  04:42-04:44-2m--360.8561mECRNational Highway 98, Bihar
70/==/DNRDanapur (5)X  06:00-06:10-10m--366.93858mECRKhagaul, Bihar
71/==/PNBEPatna Junction (10)  06:25-06:35-10m1376.34157mECRPatna 800001, Bihar
72/==/GZHGulzarbagh (3)X  06:45-06:47-2m--383.12655mECRPatna, Bihar
73/==/PNCPatna Saheb (3)  06:54-06:56-2m--386.26159mECRPatna 800008, Bihar
74/==/FUTFatwa (6)  07:08-07:10-2m--398.44653mECRPatna, Bihar
75/==/KOOKhusropur (2)  07:21-07:23-2m--3106.86452mECRPatna, Bihar
76/==/BKPBakhtiyarpur Junction (5)X  07:37-07:39-2m--3121.713551mECRPatna, Bihar
77/==/ATLAthmal Gola (2)  07:43-07:45-2m--3130.71852mECRPatna, Bihar
78/==/BARHBarh (3)  08:16-08:18-2m--3139.86849mECRBarh, Bihar
79/==/PHKPunarakh (2)X  08:27-08:29-2m--3150.06151mECRPunarakh, Bihar
80/==/MORMor (2)X  08:37-08:39-2m--3158.24446mECRMor, Bihar
81/==/MKAMokama Junction (4)  08:49-08:53-4m--3165.57248mECRPatna, Bihar
82/==/HTZHathidah Junction (2)  09:00-09:02-2m13173.96350mECRMusahari, Bihar
83/==/BRYABarhiya (3)  09:11-09:13-2m--3183.35147mECRBarahiya, Bihar
84/==/DMRXDumri Halt (1)  09:18-09:20-2m13187.64549mECRNational Highway 80, Bihar
85/==/MKBMankathaX  09:27-09:29-2m--3192.83047mECRNational Highway 80, Bihar
86/==/LKRLuckeesarai Junction (2)X  09:40-09:42-2m--3198.4852mECRLakhisarai, Bihar
87/==/KIULKiul Junction (5)X  09:52-09:56-4m--3199.73853mECRDist. Lakhisarai, Bihar
88/==/BSQPBansipur (2)  10:03-10:05-2m--3204.12553mECRKiul, Bihar
89/==/MNPMananpur (2)  10:11-10:13-2m--3206.68257mECRState Highway 18, Bihar
90/==/JMUJamui (2)O  10:28-10:30-2m--3227.03081mECRState Highway 72, Bihar
91/==/GHRGidhaur (2)  10:59-11:01-2m--3241.613106mECRState Highway 18, Bihar
92/==/JAJJhajha (4)  11:52-11:57-5m--3253.075143mECRJhajha, Bihar
93/==/STLSimultala (2)X  12:12-12:14-2m--3271.769247mERSimultala, Bihar
94/==/JSMEJasidih Junction (5)X  12:36-12:41-5m--3297.170271mERJasidih, Jharkhand
95/==/MDPMadhupur Junction (4)X  13:06-13:10-4m33326.281254mER06432-224478, Jharkhand
96/==/VDSVidyasagar (2)  13:28-13:30-2m--3350.467250mERJamtara, Jharkhand
97/==/JMTJamtara (2)X  13:46-13:48-2m23368.354201mERJamtara, Jharkhand
98/==/CRJChittaranjan (3)X  14:04-14:06-2m23382.658182mERMihijam, Jharkhand
99/==/STNSitarampur Junction (5)X  14:23-14:25-2m--3398.918139mERG T Rd Before Asansol, West Bengal
100/==/ASNAsansol Junction (7)X  14:55-15:10-15m--3407.672113mERDist - Bardhaman, West Bengal
101/==/RNGRaniGanj (4)X  15:25-15:27-2m--3425.83692mERRaniganj, West Bengal
102/==/UDLAndal Junction (6)X  15:39-15:41-2m--3433.17386mERAndal, West Bengal
103/==/DGRDurgapur (5)X  15:55-15:57-2m--3450.19471mERDurgapur, West Bengal
104/==/PANPanagarh (4)X  16:07-16:09-2m--3465.75570mERKaksa, West Bengal
105/==/BWNBarddhaman Junction (8)X  17:01-17:06-5m--3513.65134mERDist - Barddhaman, West Bengal
106/==/BDCBandel Junction (7)X  18:20 18:25-18:25 18:30-5m--3580.93914mERdist - HOOGHLY, West Bengal
107/==/HWHKolkata Howrah Junction (23)•  19:20 19:30--73620.4-10mERHowrah 711101, West Bengal
Scroll to Top
Scroll to Bottom